Regional Weather Roundup
Issued by NWS

Current Version | Previous Version | Text Only | Print | Product List | Glossary On
Versions: 1 2 3 4 5 6 7 8 9 10 11 12 13 14 15 16 17 18 19 20 21 22 23 24 25 26 27 28 29 30 31 32 33 34 35 36 37 38 39 40 41 42 43 44 45 46 47 48 49 50
000
ASUS43 KTOP 301308
RWRKS

WEATHER ROUNDUP FOR KANSAS
NATIONAL WEATHER SERVICE GOODLAND KS
800 AM CDT FRI SEP 30 2022

NOTE:  "FAIR" INDICATES FEW OR NO CLOUDS BELOW 12,000 FEET WITH NO
SIGNIFICANT WEATHER AND/OR OBSTRUCTIONS TO VISIBILITY.

KSZ001>006-013>018-027>032-041>047-301400-
NORTHWEST KANSAS

CITY           SKY/WX    TMP DP  RH WIND       PRES   REMARKS
GOODLAND       CLEAR     55  41  59 S5        29.99
HAYS           CLEAR     60  44  55 S15       30.05S
HILL CITY      CLEAR     60  46  59 S9        30.01
RUSSELL        CLEAR     60  43  53 S18       30.04
$$

KSZ061>065-074>080-084>089-301400-
SOUTHWEST KANSAS

CITY           SKY/WX    TMP DP  RH WIND       PRES   REMARKS
DODGE CITY     CLEAR     56  44  64 S15       30.06S
ELKHART        PTCLDY    65  38  36 SW18      30.10R
GARDEN CITY    CLEAR     53  46  77 SE13      30.03S
GREAT BEND     PTCLDY    59  44  57 S15       30.08S
LIBERAL        PTCLDY    57  46  66 S12       30.07R
PRATT          CLEAR     60  43  52 S13       30.11S
$$

KSZ066>073-081>083-090>101-301400-
SOUTHEAST KANSAS

CITY           SKY/WX    TMP DP  RH WIND       PRES   REMARKS
CHANUTE        CLEAR     51  42  71 SE9       30.20S
COFFEYVILLE    CLEAR     50  41  71 E3        30.19R
HUTCHINSON     CLOUDY    60  44  55 SE10      30.10F
MEDICINE LODGE   N/A     58  44  60 SE10      30.11R
NEWTON         MOCLDY    59  41  51 SE12      30.15R
PARSONS        CLEAR     50  39  66 CALM      30.21R
WICHITA INTL   LGT RAIN  58  44  60 S12       30.12S
WICHITA JABRA  MOCLDY    60  40  47 S10       30.14R
WICHITA MCCONL MOCLDY    60  41  49 S7        30.10F
WINFIELD       CLEAR     57  41  55 SE8       30.17S
$$

KSZ007>012-019>026-033>040-048>060-102>105-301400-
NORTHEAST KANSAS

CITY           SKY/WX    TMP DP  RH WIND       PRES   REMARKS
CONCORDIA      PTCLDY    60  40  47 SE17      30.08
EMPORIA        CLEAR     51  40  65 SE10      30.17S
LAWRENCE       CLEAR     46  41  82 E5        30.21R
MANHATTAN      MOCLDY    53  43  68 CALM      30.14
MARYSVILLE     MOCLDY    54  43  66 CALM      30.15S
OLATHE IND     CLEAR     49  40  71 SE8       30.22S
OLATHE EXE     CLEAR     49  41  74 SE7       30.21S
SALINA         MOCLDY    59  42  53 SE10      30.11
TOPEKA BILLARD CLEAR     51  43  74 SE7       30.18S
TOPEKA FORBES  CLEAR     48  42  80 SE6       30.18S
$$



USA.gov is the U.S. government's official web portal to all federal, state and local government web resources and services.